Regional Weather Roundup
Issued by NWS

Home | Current Version | Previous Version | Graphics & Text | Print | Product List | Glossary On
Versions: 1 2 3 4 5 6 7 8 9 10 11 12 13 14 15 16 17 18 19 20 21 22 23 24 25 26 27 28 29 30 31 32 33 34 35 36 37 38 39 40 41 42 43 44 45 46 47 48 49 50
051
ASUS43 KFSD 020310
RWRSD

WEATHER ROUNDUP FOR SOUTH DAKOTA
NATIONAL WEATHER SERVICE SIOUX FALLS SD
1000 PM CDT SUN MAY 01 2016

NOTE: "FAIR" INDICATES FEW OR NO CLOUDS BELOW 12,000 FEET WITH NO
SIGNIFICANT WEATHER AND/OR OBSTRUCTIONS TO VISIBILITY.


SDZ001>005-009-010-012>017-020400-
NORTHWEST AND NORTH CENTRAL SOUTH DAKOTA

CITY           SKY/WX    TMP DP  RH WIND       PRES   REMARKS
BUFFALO          N/A     51  30  44 NW13      30.14S
FAITH            N/A     49  29  46 SE6       30.19S
MOBRIDGE       CLEAR     45  34  65 CALM      30.15F
$$

SDZ012>016-024>037-041>051-057-063-072>074-020400-
SOUTHWEST AND SOUTH CENTRAL SOUTH DAKOTA

CITY           SKY/WX    TMP DP  RH WIND       PRES   REMARKS
RAPID CTY ARPT CLEAR     39  30  70 NE6       30.22R
PIERRE         CLEAR     42  35  76 NW9       30.18R
CUSTER         CLEAR     39  25  57 E6        30.24S
ELLSWORTH AFB  CLEAR     48  31  51 N1        30.22R
PHILIP         CLEAR     46  34  62 E3        30.22R
PINE RIDGE     CLEAR     40  31  70 E6        30.24R
WINNER         FAIR      48  34  58 CALM      30.21R
$$

SDZ004>011-016>023-039-040-020400-
NORTHEAST SOUTH DAKOTA

CITY           SKY/WX    TMP DP  RH WIND       PRES   REMARKS
ABERDEEN       CLEAR     45  33  63 SW5       30.16S
WATERTOWN      CLEAR     47  32  56 N3        30.15S
SISSETON         N/A     48  33  56 W6        30.14R
$$

SDZ017-020-022-023-036>040-048>070-020400-
SOUTHEAST SOUTH DAKOTA

CITY           SKY/WX    TMP DP  RH WIND       PRES   REMARKS
SIOUX FALLS    CLEAR     46  35  65 CALM      30.16R
HURON          CLEAR     48  37  65 CALM      30.17R
CHAMBERLAIN    CLEAR     49  40  72 CALM      30.19S
MITCHELL       CLEAR     52  40  63 CALM      30.18R
YANKTON        CLEAR     46  39  76 W3        30.17R
$$

ABBREVIATIONS USED IN REMARKS
   TC - TEMPERATURE IN CELSIUS
  WCI - WIND CHILL INDEX
   HX - HEAT INDEX
  VSB - VISIBILITY





USA.gov is the U.S. government's official web portal to all federal, state and local government web resources and services.